TimeCDT,TemperatureF,Dew PointF,Humidity,Sea Level PressureIn,VisibilityMPH,Wind Direction,Wind SpeedMPH,Gust SpeedMPH,PrecipitationIn,Events,Conditions,WindDirDegrees,DateUTC
12:14 AM,62.6,55.4,77,29.67,5.0,SW,18.4,-,N/A,,Haze,220,2013-06-24 05:14:00
12:33 AM,62.6,55.4,77,29.68,7.0,SW,13.8,-,N/A,,Clear,220,2013-06-24 05:33:00
12:53 AM,62.6,55.4,77,29.69,5.0,SW,15.0,-,N/A,,Haze,220,2013-06-24 05:53:00
1:14 AM,62.6,55.4,77,29.69,5.0,SW,13.8,-,N/A,,Haze,230,2013-06-24 06:14:00
1:33 AM,62.6,55.4,77,29.69,5.0,SW,15.0,-,N/A,,Haze,220,2013-06-24 06:33:00
1:53 AM,62.6,55.4,77,29.70,7.0,SW,15.0,-,N/A,,Clear,220,2013-06-24 06:53:00
2:14 AM,62.6,55.4,77,29.71,5.0,SW,12.7,-,N/A,,Haze,220,2013-06-24 07:14:00
2:33 AM,60.8,55.4,82,29.71,5.0,SSW,9.2,-,N/A,,Haze,210,2013-06-24 07:33:00
2:53 AM,60.8,55.4,82,29.71,5.0,SSW,8.1,-,N/A,,Haze,200,2013-06-24 07:53:00
3:14 AM,62.6,55.4,77,29.71,5.0,SSW,10.4,-,N/A,,Haze,210,2013-06-24 08:14:00
3:33 AM,62.6,55.4,77,29.71,5.0,SSW,8.1,-,N/A,,Haze,200,2013-06-24 08:33:00
3:53 AM,62.6,55.4,77,29.70,5.0,SSW,13.8,-,N/A,,Haze,210,2013-06-24 08:53:00
4:14 AM,62.6,55.4,77,29.70,5.0,SSW,13.8,18.4,N/A,,Haze,200,2013-06-24 09:14:00
4:33 AM,62.6,55.4,77,29.70,5.0,SSW,16.1,21.9,N/A,,Haze,210,2013-06-24 09:33:00
4:53 AM,62.6,55.4,77,29.70,5.0,SSW,15.0,-,N/A,,Haze,210,2013-06-24 09:53:00
5:10 AM,62.6,55.4,77,29.69,4.0,SSW,13.8,-,N/A,,Haze,210,2013-06-24 10:10:00
5:33 AM,62.6,55.4,77,29.69,4.0,SSW,13.8,20.7,N/A,,Haze,210,2013-06-24 10:33:00
5:53 AM,62.6,55.4,77,29.69,4.0,SW,17.3,-,N/A,,Haze,220,2013-06-24 10:53:00
6:14 AM,62.6,55.4,77,29.69,4.0,SW,18.4,-,N/A,,Haze,220,2013-06-24 11:14:00
6:33 AM,64.4,55.4,73,29.69,4.0,SW,18.4,-,N/A,,Haze,220,2013-06-24 11:33:00
6:53 AM,62.6,55.4,77,29.70,4.0,SW,19.6,23.0,N/A,,Haze,230,2013-06-24 11:53:00
7:14 AM,64.4,55.4,73,29.70,4.0,SW,15.0,-,N/A,,Haze,220,2013-06-24 12:14:00
7:33 AM,64.4,55.4,73,29.70,4.0,SW,13.8,20.7,N/A,,Haze,220,2013-06-24 12:33:00
7:53 AM,64.4,55.4,73,29.70,4.0,SW,17.3,20.7,N/A,,Haze,230,2013-06-24 12:53:00
8:14 AM,64.4,55.4,73,29.71,4.0,SW,13.8,-,N/A,,Haze,230,2013-06-24 13:14:00
8:33 AM,66.2,55.4,68,29.72,4.0,SSW,15.0,-,N/A,,Haze,210,2013-06-24 13:33:00
8:53 AM,66.2,57.2,73,29.73,4.0,SW,16.1,19.6,N/A,,Haze,220,2013-06-24 13:53:00
9:13 AM,66.2,57.2,73,29.72,4.0,SW,12.7,-,N/A,,Haze,220,2013-06-24 14:13:00
9:33 AM,68.0,57.2,68,29.72,4.0,SSW,11.5,15.0,N/A,,Haze,210,2013-06-24 14:33:00
9:54 AM,69.8,55.4,60,29.71,3.0,WSW,11.5,-,N/A,,Haze,240,2013-06-24 14:54:00
10:13 AM,71.6,55.4,57,29.70,4.0,WSW,12.7,21.9,N/A,,Haze,240,2013-06-24 15:13:00
10:33 AM,71.6,55.4,57,29.70,4.0,WSW,13.8,17.3,N/A,,Haze,240,2013-06-24 15:33:00
10:54 AM,73.4,55.4,53,29.70,4.0,WSW,12.7,21.9,N/A,,Haze,240,2013-06-24 15:54:00
11:14 AM,73.4,53.6,50,29.70,3.0,WSW,11.5,-,N/A,,Haze,250,2013-06-24 16:14:00
11:33 AM,75.2,51.8,44,29.70,3.0,WSW,19.6,24.2,N/A,,Haze,250,2013-06-24 16:33:00
11:54 AM,75.2,51.8,44,29.71,3.0,West,15.0,20.7,N/A,,Haze,260,2013-06-24 16:54:00
12:13 PM,75.2,51.8,44,29.71,3.0,WSW,15.0,26.5,N/A,,Haze,250,2013-06-24 17:13:00
12:33 PM,77.0,51.8,41,29.71,3.0,WSW,13.8,26.5,N/A,,Haze,250,2013-06-24 17:33:00
12:53 PM,77.0,51.8,41,29.71,4.0,West,19.6,26.5,N/A,,Haze,260,2013-06-24 17:53:00
1:13 PM,78.8,50.0,36,29.71,5.0,WSW,13.8,19.6,N/A,,Haze,240,2013-06-24 18:13:00
1:33 PM,78.8,48.2,34,29.70,7.0,WSW,17.3,28.8,N/A,,Clear,240,2013-06-24 18:33:00
1:54 PM,78.8,51.8,39,29.70,10.0,West,18.4,25.3,N/A,,Clear,260,2013-06-24 18:54:00
2:13 PM,78.8,51.8,39,29.70,10.0,WSW,18.4,28.8,N/A,,Scattered Clouds,250,2013-06-24 19:13:00
2:33 PM,78.8,51.8,39,29.70,10.0,West,15.0,23.0,N/A,,Scattered Clouds,270,2013-06-24 19:33:00
2:54 PM,78.8,51.8,39,29.70,7.0,WSW,15.0,19.6,N/A,,Mostly Cloudy,250,2013-06-24 19:54:00
3:13 PM,80.6,50.0,34,29.70,10.0,West,17.3,20.7,N/A,,Mostly Cloudy,260,2013-06-24 20:13:00
3:33 PM,80.6,48.2,32,29.70,10.0,WSW,15.0,23.0,N/A,,Scattered Clouds,250,2013-06-24 20:33:00
3:54 PM,80.6,48.2,32,29.70,10.0,WSW,13.8,20.7,N/A,,Scattered Clouds,250,2013-06-24 20:54:00
4:13 PM,80.6,48.2,32,29.71,10.0,WSW,17.3,24.2,N/A,,Scattered Clouds,240,2013-06-24 21:13:00
4:33 PM,80.6,50.0,34,29.71,10.0,WSW,11.5,17.3,N/A,,Scattered Clouds,250,2013-06-24 21:33:00
4:54 PM,80.6,48.2,32,29.71,10.0,WSW,17.3,23.0,N/A,,Mostly Cloudy,250,2013-06-24 21:54:00
5:13 PM,80.6,50.0,34,29.71,10.0,WSW,15.0,24.2,N/A,,Mostly Cloudy,240,2013-06-24 22:13:00
5:33 PM,82.4,50.0,32,29.71,10.0,SW,20.7,26.5,N/A,,Scattered Clouds,230,2013-06-24 22:33:00
5:54 PM,80.6,51.8,37,29.71,10.0,WSW,16.1,25.3,N/A,,Scattered Clouds,240,2013-06-24 22:54:00
6:13 PM,82.4,48.2,30,29.71,10.0,WSW,18.4,24.2,N/A,,Scattered Clouds,250,2013-06-24 23:13:00
6:33 PM,80.6,50.0,34,29.72,10.0,WSW,12.7,24.2,N/A,,Scattered Clouds,250,2013-06-24 23:33:00
6:54 PM,82.4,50.0,32,29.72,10.0,West,16.1,20.7,N/A,,Clear,270,2013-06-24 23:54:00
7:13 PM,80.6,48.2,32,29.72,10.0,WSW,13.8,21.9,N/A,,Clear,250,2013-06-25 00:13:00
7:33 PM,82.4,48.2,30,29.73,10.0,West,10.4,-,N/A,,Clear,260,2013-06-25 00:33:00
7:54 PM,82.4,48.2,30,29.72,10.0,West,9.2,-,N/A,,Clear,260,2013-06-25 00:54:00
8:13 PM,80.6,48.2,32,29.72,10.0,West,6.9,-,N/A,,Clear,260,2013-06-25 01:13:00
8:33 PM,80.6,48.2,32,29.72,10.0,West,5.8,-,N/A,,Clear,260,2013-06-25 01:33:00
8:54 PM,80.6,48.2,32,29.72,10.0,WSW,3.5,-,N/A,,Clear,250,2013-06-25 01:54:00
9:13 PM,78.8,48.2,34,29.72,10.0,WSW,4.6,-,N/A,,Clear,250,2013-06-25 02:13:00
9:33 PM,78.8,48.2,34,29.73,10.0,WSW,3.5,-,N/A,,Clear,240,2013-06-25 02:33:00
9:54 PM,75.2,50.0,41,29.74,10.0,WSW,3.5,-,N/A,,Clear,240,2013-06-25 02:54:00
10:13 PM,73.4,55.4,53,29.74,5.0,Calm,Calm,-,N/A,,Haze,0,2013-06-25 03:13:00
10:33 PM,73.4,55.4,53,29.75,5.0,Calm,Calm,-,N/A,,Haze,0,2013-06-25 03:33:00
10:54 PM,71.6,59.0,64,29.75,10.0,SSE,3.5,-,N/A,,Clear,160,2013-06-25 03:54:00
11:13 PM,71.6,55.4,57,29.75,4.0,Calm,Calm,-,N/A,,Haze,0,2013-06-25 04:13:00
11:33 PM,71.6,55.4,57,29.76,2.5,Calm,Calm,-,N/A,,Haze,0,2013-06-25 04:33:00
11:54 PM,69.8,57.2,64,29.76,4.0,Calm,Calm,-,N/A,,Haze,0,2013-06-25 04:54:00